Regional Weather Roundup
Issued by NWS

Home | Current Version | Previous Version | Text Only | Print | Product List | Glossary Off
Versions: 1 2 3 4 5 6 7 8 9 10 11 12 13 14 15 16 17 18 19 20 21 22 23 24 25 26 27

000
ASUS45 KCYS 310910
RWRWY

WYOMING REGIONAL WEATHER ROUNDUP
NATIONAL WEATHER SERVICE CHEYENNE WY
300 AM MDT TUE MAY 31 2016

NOTE:  "FAIR" INDICATES FEW OR NO CLOUDS BELOW 12,000 FEET
WITH NO SIGNIFICANT WEATHER AND/OR OBSTRUCTIONS TO VISIBILITY.

WYZ001-311000-
YELLOWSTONE NATIONAL PARK

CITY           SKY/WX    TMP DP  RH WIND       PRES   REMARKS
LK YELLOWSTONE   N/A     29  23  78 NW3       30.26R
W YELLOWSTONE  NOT AVBL

$$
WYZ002>013-054>058-071-098>099-311000-
NORTHERN WYOMING

CITY           SKY/WX    TMP DP  RH WIND       PRES   REMARKS
JACKSON        FAIR      41  34  75 NE7       30.18S
CODY           FAIR      39  34  81 S3        30.16F
GREYBULL       FAIR      48  33  56 NW9       30.12S
WORLAND        MOCLDY    51  34  52 NW9       30.12S
SHERIDAN       FAIR      48  35  60 NW22G30   30.09S
BUFFALO        FAIR      44  33  65 NW12G21   30.11S
GILLETTE       FAIR      43  41  93 SW13      30.07F
HULETT         FAIR      43  34  70 SW12      30.05F
NEWCASTLE      FAIR      41  36  81 N5        30.10S

$$
WYZ014>020-022>026-101>103-311000-
CENTRAL WYOMING

CITY           SKY/WX    TMP DP  RH WIND       PRES   REMARKS
BIG PINEY      FAIR      35  28  75 N5        30.19S WCI  31
PINEDALE       FAIR      36  32  87 NE6       30.19S WCI  31
DUBOIS         CLOUDY    37  30  75 NW6       30.19S WCI  33
LANDER         CLOUDY    47  38  71 SE3       30.13F
RIVERTON       FAIR      47  37  68 NE8       30.15F
CASPER         MOCLDY    37  34  89 NW7       30.14F WCI  32
DOUGLAS          N/A    N/A N/A N/A MISG      30.14F

$$
WYZ021-027>030-104>119-311000-
SOUTHERN WYOMING

CITY           SKY/WX    TMP DP  RH WIND       PRES   REMARKS
EVANSTON       FAIR      46  35  65 S5        30.18S
KEMMERER         N/A     37  32  81 NW14      30.18F WCI  29
FORT BRIDGER   SUNNY     43  32  65 W7        30.20S
ROCK SPRINGS   FAIR      41  38  89 E7        30.17F
DIXON          FAIR      41  36  83 SE6       30.16S
RAWLINS        CLOUDY    45  38  76 NE7       30.17F
SARATOGA       FAIR      36  36 100 CALM      30.16R
LARAMIE        CLOUDY    42  36  79 E6        30.18S
CHEYENNE       CLOUDY    45  37  73 N13G24    30.15S
TORRINGTON     CLOUDY    49  44  83 W5        30.11F
PINE BLUFFS    PTSUNNY   43  39  87 N13       30.13F

$$




USA.gov is the U.S. government's official web portal to all federal, state and local government web resources and services.